map of DAR home
DAR - Airport
Location
City:  Dar es Salaam, Dar es Salaam, Tanzania
Name:Julius Nyerere International Airport
Old (Alt.):Mwalimu Julius Kambarage Nyerere International Airport
ICAO:HTDA
IATA:DAR

Details
Type:Airport (Aerodrome, Airfield)
Use:Public/Civil, International (customs port of entry)
Latitude:652'41"S (-6.878110)
Longitude:3912'09"E (39.202625)
Datum:WGS 1984
Elevation:182 ft (55 m)
Variation:2.13W (WMM2015 magnetic declination)
0.00 annual change
Runways:2
Longest:9843 × 151 ft (3000 × 46 m), paved

Time
Time Zone:UTC+3
Local Time:

Weather
METAR:HTDA 220100Z 18010KT 9999 SCT013 BKN080 24/24 Q1010 NOSIG
TAF:HTDA 212300Z 2200/2306 00000KT 9999 BKN017 FEW018CB
BECMG 2202/2205 SHRA BKN016 FEW017CB

Related Locations
Nearby:
Farthest:NHV: 11352 mi / 18270 km
Nuku Hiva, Marquesas Islands, PF

Find:

   beyond  
but within

Other Information
Maps:
NOTAMs:
Links:
Sources:

  
flag of Tanzania   

Sectional Chart

Flight Planning
at skyvector.com

Satellite Image

Google Maps Satellite view

 

Copyright © 2004-2018 Karl L. Swartz. All rights reserved.
The Great Circle Mapper name and logo are trademarks of the Great Circle Mapper.
All other trademarks mentioned herein belong to their respective owners.
Please see credits for attibutions and further copyright information.

  Follow gcmap on Facebook Follow gcmap on Twitter Follow gcmap on Google+ GCmap on LinkedIn

hCard Microformat

Geo Microformat